Tracking 23610 objects as of 19-Sep-2021
HD Live streaming from Space Station
objects crossing your sky now

STARLINK-2611

Track STARLINK-2611 now!
10-day predictions
STARLINK-2611 is classified as:


NORAD ID: 48364
Int'l Code: 2021-038M
Perigee: 552.9 km
Apogee: 555.8 km
Inclination: 53.1 °
Period: 95.6 minutes
Semi major axis: 6925 km
RCS: Unknown
Launch date: May 4, 2021
Source: United States (US)
Launch site: AIR FORCE EASTERN TEST RANGE (AFETR)
aabbcc
Your satellite tracking list
Your tracking list is empty




NASA's NSSDC Master Catalog

Two Line Element Set (TLE):
1 48364U 21038M   21261.61450138  .00000869  00000-0  77264-4 0  9992
2 48364  53.0553 127.7619 0002087  78.2860 281.8363 15.06400432 20951
Source of the keplerian elements: AFSPC